Wind_Speed
49 39 36 32 26 20 15 5 6 4 9 13 15 18 15 10 12 12 13 12 16 20 28 27 28 32 34 36 41 41 47 47 47 53 58 63 61 55 51 47 43 37 31 25
41 35 30 26 23 17 11 4 3 6 13 16 19 17 11 14 16 14 14 16 24 29 30 31 32 34 35 39 44 45 46 48 50 58 61 64 59 55 51 47 42 36 29 22
33 34 23 22 18 11 2 3 5 9 16 19 20 13 14 18 18 16 16 23 28 30 30 32 31 34 36 41 44 47 49 51 56 58 64 64 59 56 52 46 38 29 22 18
29 27 19 17 14 4 2 2 8 11 18 20 15 14 17 21 19 15 21 29 31 32 32 32 34 34 38 42 44 49 52 58 59 60 65 64 62 58 54 44 36 28 24 20
28 28 22 13 8 5 3 4 8 12 20 19 15 14 21 22 18 19 27 31 34 34 34 35 36 36 41 41 44 49 53 61 63 62 67 68 66 61 53 45 39 32 26 22
24 23 22 12 4 10 5 2 7 14 19 17 13 17 23 23 19 25 28 31 34 32 32 32 35 36 37 41 45 50 55 62 66 67 68 71 69 64 56 50 46 38 32 28
14 15 17 13 12 13 8 1 6 15 18 17 13 22 25 23 22 28 28 32 31 30 30 32 37 36 36 41 45 49 59 65 68 73 68 71 71 68 63 57 53 46 39 34
10 14 21 16 22 16 8 3 8 16 18 17 16 24 25 24 23 27 29 30 30 28 30 35 36 36 38 42 45 51 57 64 68 75 72 71 73 72 70 65 60 55 46 42
14 25 24 26 23 18 10 5 12 16 20 19 18 23 25 25 23 25 28 27 29 25 28 32 34 34 38 42 44 49 54 60 67 75 78 71 76 79 75 72 66 61 55 49
24 27 30 31 24 17 11 10 13 16 21 21 19 20 24 25 23 25 26 26 26 25 24 28 31 33 37 38 42 45 51 55 62 73 79 76 76 80 77 76 72 64 62 56
27 33 34 28 22 17 14 13 12 15 21 22 21 18 22 24 23 23 24 25 25 24 20 25 27 31 36 39 40 43 50 55 60 66 75 80 78 77 78 77 77 71 66 64
32 34 29 24 21 16 16 14 11 14 19 22 22 19 20 24 24 23 22 23 23 22 19 22 24 29 35 38 40 41 50 53 56 62 68 75 81 76 75 77 78 76 71 70
32 30 26 21 20 17 15 15 9 11 16 21 21 19 17 22 22 24 23 23 21 19 19 20 20 23 26 32 37 39 43 49 51 55 61 69 76 80 75 74 76 77 75 71
30 27 23 19 18 18 16 15 9 8 11 15 21 18 18 17 19 21 23 21 21 18 18 18 18 21 24 27 32 36 40 43 48 50 56 62 68 72 77 75 71 72 73 72
24 24 20 18 17 18 16 16 11 7 6 8 15 18 16 17 16 17 18 19 18 18 16 14 14 15 19 20 25 29 34 38 40 45 49 54 59 64 68 74 75 70 69 69
24 23 20 17 17 18 18 17 14 9 5 4 7 13 16 15 16 17 17 17 16 16 15 13 14 13 14 16 20 25 29 30 34 39 43 49 52 55 59 63 69 73 72 66
22 27 24 20 19 18 21 18 16 13 8 4 1 5 9 12 13 15 16 15 13 14 12 11 13 13 11 11 14 18 24 26 27 30 37 42 44 48 50 53 56 63 67 69
18 26 25 21 20 20 20 21 19 16 13 9 6 2 3 5 9 10 13 13 12 12 12 10 11 13 12 11 10 11 14 19 24 25 29 35 39 41 42 44 47 50 54 58
6 21 26 26 23 23 23 22 22 21 18 15 12 9 6 3 2 4 7 10 11 11 10 9 10 11 11 13 10 8 10 12 14 19 21 24 27 32 35 37 38 41 44 47
14 14 23 33 31 27 26 26 23 25 24 22 18 17 14 10 7 5 4 6 8 9 10 10 9 8 9 10 10 10 9 7 8 10 11 14 17 20 24 29 32 34 35 36
19 14 18 28 38 37 33 30 29 28 29 29 26 24 22 19 15 11 9 7 7 9 9 10 10 9 9 10 10 12 11 10 8 8 9 8 8 9 13 16 19 23 27 30
25 22 18 19 33 42 43 38 35 34 33 32 33 31 29 26 23 20 17 14 12 10 9 10 9 9 9 9 10 9 8 10 12 11 11 11 9 6 5 7 9 12 15 17
31 28 25 21 22 33 46 47 44 40 38 38 35 38 37 34 31 28 25 23 19 17 14 13 13 12 11 9 10 11 11 11 11 11 12 13 13 13 11 7 4 2 6 10
39 36 30 30 25 26 36 50 52 50 46 43 43 41 43 43 40 37 34 32 29 25 23 20 19 17 17 15 14 13 14 14 14 14 15 15 14 14 13 13 13 11 8 7
40 37 36 36 35 32 33 39 52 58 57 53 49 48 47 46 49 46 43 40 38 35 32 29 27 25 23 22 19 18 17 18 17 16 16 17 17 18 17 16 15 15 15 15
43 41 38 43 42 39 38 38 44 52 62 62 59 55 53 52 51 51 52 50 47 43 40 39 36 33 31 29 27 25 23 22 21 19 20 21 20 20 21 19 18 19 19 20
51 49 47 47 47 45 40 41 44 49 55 63 67 65 62 59 56 56 55 55 55 54 50 47 45 43 40 38 35 33 31 29 28 26 24 23 23 23 23 24 24 23 22 22
Wind_Direction
326 332 332 345 350 343 344 50 85 27 5 3 352 353 8 26 37 54 62 63 69 85 89 83 74 66 60 52 41 36 28 20 12 11 7 360 351 344 339 337 335 334 329 324
319 322 328 345 347 356 345 104 45 357 14 9 2 8 40 47 60 67 69 70 96 96 94 83 74 64 59 45 37 33 25 20 14 13 8 0 355 354 350 347 345 342 340 337
311 308 323 333 348 17 8 65 344 3 22 11 11 35 55 62 72 76 73 95 106 98 91 83 74 64 53 43 38 31 25 22 18 13 10 4 4 2 0 357 355 354 353 5
296 290 303 315 344 74 136 351 327 13 28 9 32 48 61 73 80 85 96 108 101 99 89 82 74 62 51 47 39 32 26 27 21 16 13 13 11 11 8 7 10 14 19 24
285 272 271 285 322 132 193 281 352 20 31 17 47 66 71 83 91 94 112 110 104 96 92 80 70 59 53 48 41 34 27 28 24 21 18 20 19 18 16 20 25 30 33 43
279 258 243 243 243 147 193 297 354 34 32 39 58 84 88 95 103 109 118 110 100 94 88 79 70 59 54 50 45 37 31 32 29 26 22 24 25 25 25 30 35 40 45 52
258 232 211 201 158 149 191 67 15 42 39 61 73 93 98 100 105 117 118 110 102 95 87 78 72 61 59 53 49 42 35 33 33 31 28 28 31 32 34 38 43 46 51 59
215 183 174 167 149 159 166 132 57 50 52 69 83 96 99 100 105 120 118 114 105 96 89 79 73 68 62 55 48 45 40 36 35 36 33 31 38 37 39 41 48 51 54 62
159 158 160 151 148 157 148 119 73 60 61 74 86 101 101 102 109 122 121 118 108 97 89 83 76 71 62 55 48 45 43 37 35 41 38 36 40 41 43 45 48 55 58 63
149 151 150 143 148 149 147 115 79 66 66 80 86 103 106 107 111 124 125 124 106 100 88 85 76 73 65 57 50 45 44 39 36 42 42 42 42 45 46 49 50 55 64 66
145 144 141 143 145 147 142 111 82 71 66 84 89 102 111 109 113 128 128 126 115 104 95 88 79 72 67 62 55 49 49 45 41 40 45 46 46 46 48 53 55 57 64 72
140 139 138 141 142 153 140 113 87 74 67 76 92 100 115 116 117 126 131 133 124 110 101 94 84 75 67 64 60 55 53 48 46 44 44 49 49 49 50 53 58 60 65 73
140 139 141 140 147 160 145 120 98 77 71 71 84 100 110 120 124 125 136 134 130 123 110 102 91 78 71 67 63 59 56 56 49 49 47 51 53 52 54 56 58 62 64 71
150 151 148 149 156 166 156 133 121 94 73 68 76 90 110 116 128 138 144 142 137 133 122 108 97 88 80 74 66 62 58 57 57 52 53 52 55 56 56 58 63 65 68 71
164 160 161 165 168 174 172 150 140 133 91 63 71 78 98 115 123 133 147 155 146 141 140 126 104 91 88 79 73 67 63 59 59 59 58 57 56 58 58 60 62 68 71 74
183 177 177 180 185 184 182 172 155 157 144 92 68 77 84 110 124 135 139 156 162 158 149 137 121 111 92 84 79 77 71 65 60 60 64 62 61 59 61 63 66 66 69 74
220 201 196 192 198 195 189 192 178 170 175 167 146 78 76 90 118 135 143 149 171 180 174 167 150 127 113 92 80 79 78 73 62 58 65 67 66 65 64 65 67 72 73 73
224 229 217 207 212 209 206 198 198 187 188 192 204 215 85 82 95 124 140 151 162 170 185 197 179 164 138 124 108 87 78 78 71 67 66 70 70 70 71 68 68 71 76 80
238 233 233 230 219 222 221 216 207 206 199 199 203 208 197 168 146 119 128 148 155 159 164 169 185 188 175 159 140 127 104 86 78 79 74 71 68 72 78 77 76 76 76 77
332 250 229 236 237 228 226 223 225 213 212 210 207 209 212 204 200 200 182 151 152 161 159 159 171 188 205 202 189 162 150 136 109 103 82 77 76 72 73 79 85 85 85 85
327 311 270 228 230 237 232 227 223 230 220 217 218 216 213 213 210 207 203 201 175 173 167 163 167 185 199 204 209 212 210 196 156 156 131 112 88 78 88 83 82 84 90 94
317 308 289 274 240 227 235 234 229 226 231 224 221 223 221 218 216 215 214 211 208 200 189 184 171 173 182 190 201 211 212 206 201 197 180 166 148 131 91 83 89 100 98 101
310 304 290 279 265 243 231 233 235 232 227 232 229 224 224 224 222 218 222 223 222 215 211 202 195 187 183 187 199 206 214 221 219 211 215 210 196 178 171 172 185 162 131 129
304 298 288 281 272 255 244 234 234 237 237 232 230 230 228 227 226 227 225 226 226 227 223 219 216 209 208 198 195 200 206 214 220 219 220 221 215 214 211 202 194 201 215 222
297 291 286 280 275 270 254 244 236 235 235 236 234 232 229 230 230 229 228 229 227 227 228 226 224 221 215 214 216 212 205 203 201 205 213 219 221 223 224 222 227 221 214 211
295 285 280 280 277 271 264 253 243 236 235 236 236 234 233 230 229 230 229 229 230 227 227 228 228 227 226 224 223 223 220 216 215 213 213 213 212 216 220 221 221 222 222 223
287 280 275 270 269 270 263 258 247 240 235 233 235 235 235 235 232 231 231 231 230 229 228 229 230 230 230 230 227 227 227 228 227 224 220 217 215 215 213 212 212 213 214 215
Height
10512 10509 10502 10497 10490 10485 10483 10481 10480 10478 10475 10472 10466 10459 10454 10450 10447 10444 10441 10439 10437 10437 10437 10435 10432 10429 10425 10419 10411 10402 10391 10381 10370 10353 10335 10317 10298 10278 10256 10236 10218 10202 10189 10179
10509 10504 10500 10496 10490 10487 10486 10485 10482 10479 10476 10472 10464 10459 10455 10452 10448 10446 10444 10443 10444 10443 10441 10440 10437 10434 10428 10421 10413 10404 10395 10382 10368 10349 10332 10313 10291 10267 10244 10224 10207 10192 10181 10171
10505 10497 10498 10495 10492 10489 10489 10487 10484 10481 10477 10471 10466 10461 10457 10454 10451 10450 10449 10448 10449 10449 10448 10445 10442 10438 10433 10425 10417 10408 10396 10382 10367 10350 10331 10309 10284 10261 10238 10219 10202 10189 10178 10168
10498 10495 10495 10492 10491 10490 10490 10489 10486 10482 10478 10472 10468 10464 10460 10456 10456 10455 10455 10455 10455 10455 10453 10451 10447 10443 10436 10429 10421 10410 10399 10385 10369 10352 10332 10307 10282 10258 10238 10219 10202 10189 10177 10169
10488 10487 10489 10490 10489 10490 10491 10489 10487 10483 10480 10474 10470 10467 10463 10462 10461 10461 10461 10462 10461 10460 10459 10456 10453 10448 10441 10434 10425 10416 10404 10390 10375 10355 10334 10310 10285 10262 10243 10223 10206 10192 10182 10173
10474 10476 10481 10485 10486 10489 10492 10490 10488 10485 10482 10477 10474 10470 10467 10466 10465 10465 10466 10468 10468 10467 10464 10462 10458 10453 10447 10440 10431 10423 10413 10396 10379 10360 10339 10316 10292 10271 10251 10230 10213 10199 10188 10179
10464 10467 10474 10479 10484 10489 10492 10492 10490 10487 10484 10480 10477 10473 10471 10470 10469 10470 10473 10474 10473 10472 10470 10468 10464 10459 10454 10447 10439 10431 10417 10403 10387 10368 10348 10328 10304 10281 10261 10242 10224 10211 10199 10190
10458 10464 10470 10477 10484 10490 10492 10493 10491 10490 10487 10483 10481 10477 10476 10474 10475 10477 10479 10480 10479 10478 10476 10474 10470 10466 10460 10453 10446 10436 10424 10412 10398 10379 10360 10342 10318 10296 10276 10257 10240 10226 10216 10206
10457 10463 10470 10478 10486 10491 10493 10494 10493 10492 10489 10486 10485 10482 10481 10478 10480 10482 10484 10486 10485 10484 10482 10480 10477 10472 10466 10460 10452 10445 10433 10422 10410 10391 10374 10356 10334 10314 10294 10277 10260 10246 10236 10226
10460 10465 10473 10482 10489 10493 10495 10496 10496 10495 10493 10489 10489 10488 10486 10483 10484 10488 10489 10491 10491 10490 10489 10487 10483 10479 10472 10467 10461 10454 10444 10434 10422 10406 10390 10373 10354 10336 10318 10301 10286 10273 10258 10251
10465 10471 10480 10487 10493 10495 10497 10498 10498 10498 10497 10493 10492 10493 10491 10489 10489 10492 10494 10496 10497 10496 10494 10492 10490 10486 10480 10475 10470 10464 10455 10446 10435 10422 10408 10392 10376 10361 10345 10329 10313 10301 10289 10276
10476 10482 10488 10492 10495 10498 10500 10500 10501 10501 10500 10499 10496 10497 10496 10495 10494 10495 10499 10501 10502 10500 10500 10498 10496 10493 10489 10484 10480 10474 10467 10459 10450 10439 10427 10414 10400 10387 10373 10356 10341 10332 10322 10308
10486 10490 10493 10497 10499 10502 10503 10504 10505 10505 10504 10503 10501 10501 10501 10499 10499 10499 10502 10504 10505 10505 10505 10504 10502 10500 10497 10494 10489 10485 10479 10473 10465 10456 10446 10434 10422 10410 10398 10385 10371 10361 10354 10347
10493 10495 10497 10500 10503 10505 10506 10507 10508 10508 10508 10507 10506 10505 10505 10504 10504 10505 10506 10508 10509 10510 10511 10510 10508 10506 10504 10501 10498 10494 10490 10485 10480 10473 10463 10453 10443 10434 10423 10413 10403 10393 10386 10380
10499 10500 10502 10503 10505 10507 10509 10510 10511 10511 10511 10510 10510 10510 10509 10508 10509 10510 10511 10512 10513 10514 10515 10515 10514 10513 10510 10509 10507 10503 10499 10496 10493 10489 10481 10472 10463 10455 10448 10439 10432 10424 10417 10411
10503 10504 10505 10506 10507 10509 10511 10512 10513 10514 10514 10514 10513 10513 10513 10512 10512 10513 10513 10515 10517 10518 10518 10519 10519 10518 10517 10515 10514 10512 10508 10506 10504 10501 10496 10489 10483 10475 10470 10464 10457 10451 10444 10440
10505 10504 10506 10507 10508 10510 10512 10514 10514 10516 10516 10517 10516 10515 10515 10516 10515 10515 10515 10517 10518 10520 10521 10522 10522 10522 10523 10522 10520 10519 10517 10515 10512 10510 10507 10504 10500 10495 10490 10485 10481 10473 10468 10467
10504 10506 10509 10510 10510 10511 10512 10514 10515 10516 10517 10518 10519 10518 10518 10519 10518 10518 10517 10518 10519 10520 10522 10523 10524 10525 10525 10526 10526 10525 10523 10522 10521 10519 10518 10515 10513 10511 10507 10504 10500 10497 10493 10489
10502 10504 10507 10510 10511 10511 10512 10513 10514 10516 10517 10518 10519 10520 10520 10520 10520 10520 10519 10519 10520 10521 10522 10523 10525 10526 10527 10528 10529 10530 10529 10528 10527 10527 10526 10525 10524 10523 10522 10519 10517 10515 10512 10509
10504 10502 10502 10505 10507 10509 10510 10511 10512 10513 10515 10517 10517 10519 10519 10520 10521 10521 10521 10521 10521 10522 10522 10523 10525 10526 10528 10529 10530 10531 10532 10533 10533 10532 10532 10532 10532 10532 10531 10531 10530 10529 10527 10526
10500 10499 10498 10497 10500 10502 10505 10507 10508 10509 10511 10514 10515 10516 10518 10518 10519 10521 10522 10522 10522 10522 10523 10524 10525 10526 10527 10529 10530 10531 10533 10534 10535 10535 10536 10536 10537 10538 10538 10538 10538 10538 10538 10537
10494 10493 10492 10490 10490 10491 10495 10499 10502 10503 10505 10508 10511 10513 10514 10516 10517 10518 10520 10521 10522 10523 10524 10525 10526 10526 10527 10528 10530 10531 10532 10533 10535 10536 10538 10538 10539 10540 10541 10542 10544 10544 10545 10545
10487 10484 10483 10483 10482 10483 10484 10487 10491 10495 10497 10500 10503 10506 10508 10511 10513 10514 10515 10517 10519 10521 10522 10523 10524 10526 10527 10527 10528 10530 10531 10532 10534 10535 10537 10538 10540 10541 10542 10544 10545 10547 10548 10549
10472 10474 10473 10471 10472 10473 10473 10475 10478 10483 10487 10489 10491 10495 10499 10502 10505 10509 10510 10511 10513 10515 10518 10519 10520 10522 10524 10526 10527 10528 10529 10530 10531 10533 10534 10536 10537 10539 10541 10543 10544 10546 10548 10549
10461 10458 10457 10458 10459 10459 10461 10461 10463 10467 10471 10476 10480 10483 10486 10490 10494 10498 10501 10504 10506 10508 10510 10513 10515 10517 10519 10521 10523 10524 10526 10527 10529 10530 10532 10533 10534 10536 10537 10539 10541 10543 10545 10546
10445 10444 10443 10440 10442 10444 10444 10446 10448 10450 10455 10460 10465 10470 10472 10476 10480 10484 10488 10492 10496 10499 10502 10504 10506 10509 10512 10515 10516 10518 10520 10523 10525 10526 10528 10530 10531 10532 10534 10536 10537 10539 10541 10542
10425 10424 10424 10424 10422 10423 10426 10428 10430 10433 10436 10440 10446 10452 10457 10462 10465 10469 10473 10477 10481 10486 10490 10493 10496 10499 10501 10504 10508 10511 10513 10515 10517 10520 10522 10523 10525 10528 10529 10531 10533 10534 10535 10537